This is the latest recevied weather packets stored in our database for station/object KD8OZS. If no packets are shown the sender has not sent any weather packets the latest 10 day(s).
| Time | Temp. | Humidity | Pressure | Rain* | Wind** | Luminosity | Snow |
|---|---|---|---|---|---|---|---|
| 1787400134 | 17.22° C | 99% | 1007.1 hPa | 0 mm | - | 67 W/m² | - |
| 1787399830 | 17.22° C | 99% | 1007.3 hPa | 0 mm | - | 53 W/m² | - |
| 1787399526 | 17.22° C | 99% | 1007.2 hPa | 0 mm | - | 57 W/m² | - |
| 1787399225 | 17.22° C | 99% | 1007.4 hPa | 0 mm | - | 57 W/m² | - |
| 1787398919 | 16.67° C | 99% | 1007.2 hPa | 0 mm | - | 52 W/m² | - |
| 1787398615 | 16.67° C | 99% | 1007.1 hPa | 0 mm | - | 52 W/m² | - |
| 1787398312 | 16.67° C | 99% | 1007.1 hPa | 0 mm | - | 49 W/m² | - |
| 1787398007 | 16.67° C | 99% | 1006.9 hPa | 0 mm | - | 35 W/m² | - |
| 1787397707 | 16.67° C | 99% | 1007.2 hPa | 0 mm | - | 30 W/m² | - |
| 1787397406 | 16.67° C | 99% | 1007 hPa | 0 mm | - | 23 W/m² | - |
| 1787397102 | 16.67° C | 99% | 1006.8 hPa | 0 mm | - | 17 W/m² | - |
| 1787396797 | 16.11° C | 99% | 1006.8 hPa | 0 mm | - | 12 W/m² | - |
| 1787396493 | 16.11° C | 99% | 1006.8 hPa | 0 mm | - | 9 W/m² | - |
| 1787396192 | 16.67° C | 99% | 1006.8 hPa | 0 mm | - | 6 W/m² | - |
| 1787395888 | 16.67° C | 99% | 1006.7 hPa | 0 mm | - | 3 W/m² | - |
| 1787395588 | 16.67° C | 99% | 1006.7 hPa | 0 mm | - | 1 W/m² | - |
| 1787395282 | 16.67° C | 99% | 1006.7 hPa | 0 mm | - | 0 W/m² | - |
| 1787394977 | 16.11° C | 99% | 1006.9 hPa | 0 mm | - | 0 W/m² | - |
| 1787394674 | 16.11° C | 99% | 1006.8 hPa | 0 mm | - | 0 W/m² | - |
| 1787394369 | 16.11° C | 99% | 1006.7 hPa | 0 mm | - | 0 W/m² | - |
| 1787394064 | 16.67° C | 99% | 1006.7 hPa | 0 mm | - | 0 W/m² | - |
| 1787393758 | 16.67° C | 99% | 1006.7 hPa | 0 mm | - | 0 W/m² | - |
| 1787393454 | 16.67° C | 99% | 1006.6 hPa | 0 mm | - | 0 W/m² | - |
| 1787393149 | 16.11° C | 99% | 1006.6 hPa | 0 mm | - | 0 W/m² | - |
| 1787392845 | 16.67° C | 99% | 1006.9 hPa | 0 mm | - | 0 W/m² | - |
* Rain latest hour (hover to see other rain measurements)
** Current wind speed in m/s (hover to see current wind gust speed)